Location: *
(58.7167°N, 26.1833°E)
Time: 14:12:38
(UTC+00:00)

Timation 2 Rocket - Pass Details

Date: 25 August 2019
Orbit: 907 x 1075 km, 70.0° (Epoch: 16 September)

Event Time Altitude Azimuth Distance (km) Brightness Sun altitude
Exits shadow 22:01:48 36° 164° (SSE) 1,594 4.6 -20.6°
Maximum altitude 22:04:02 49° 116° (ESE) 1,311 4.4 -20.6°
Drops below altitude 10° 22:10:14 10° 45° (NE) 2,774 7.0 -20.7°
Sets 22:12:50 0° 40° (NE) 3,701 7.8 -20.7°
